Location: *
(53.5992°N, 9.0756°E)
Time: 17:35:46
(UTC+00:00)

Daily predictions for brighter satellites

Satellite Brightness Start Highest point End
(mag) Time Altitude Azimuth Time Altitude Azimuth Time Altitude Azimuth
Ariane Rocket 4.1 16:49:33 10° ESE 16:53:39 25° NE 16:57:46 10° N
Unknown 4.3 16:49:55 10° SW 16:53:49 41° SSE 16:57:43 10° E
Okean O Rocket 4.5 16:50:23 10° SSW 16:54:04 25° W 16:57:47 10° NW
Cosmos 1833 Rocket 3.3 16:49:57 10° NNW 16:55:09 37° NE 17:00:21 10° ESE
Unknown 4.3 16:51:32 10° SW 16:55:26 41° SSE 16:59:21 10° E
Cosmos 2228 3.6 16:51:30 10° SSE 16:55:29 35° E 16:59:28 10° NNE
SMAP 3.6 16:51:11 10° S 16:55:48 66° WSW 17:00:28 10° NNW
Cosmos 1242 Rocket 3.1 16:53:23 10° N 16:56:51 37° ENE 17:00:18 10° SE
Cosmos 1271 Rocket 2.8 16:53:19 10° N 16:57:17 67° ENE 17:01:16 10° SSE
Cosmos 1726 3.4 16:55:06 10° SE 16:57:45 19° E 17:00:25 10° NE
Unknown 4.4 16:54:38 10° SW 16:58:31 40° SSE 17:02:25 10° E
Cosmos 1992 Rocket 4.3 16:54:31 10° S 16:59:28 45° ESE 17:04:26 10° NE
CZ-4C R/B 4.0 16:54:40 10° NW 17:01:26 50° SW 17:09:08 10° SSE
Cosmos 1503 Rocket 4.3 16:56:19 10° NNW 17:01:29 73° WSW 17:06:38 10° SSE
Unknown 4.3 16:57:55 10° SW 17:01:49 41° SSE 17:05:44 10° E
Unknown 4.3 16:59:36 10° SW 17:03:32 42° SSE 17:07:27 10° E
Cosmos 2239 Rocket 4.5 16:57:53 10° N 17:04:05 73° ENE 17:10:13 10° SSE
Cosmos 839 Rocket 4.1 16:58:16 10° NW 17:04:28 81° NE 17:11:10 10° SE
Cosmos 2058 Rocket 3.9 17:01:12 10° SSE 17:04:57 29° E 17:08:43 10° NNE
Unknown 4.3 17:01:12 10° SW 17:05:08 43° SSE 17:09:04 10° E
Cosmos 921 Rocket 3.9 17:01:23 10° SSE 17:05:20 31° E 17:09:17 10° NE
Unknown 4.1 17:01:37 10° SW 17:05:32 45° SSE 17:09:28 10° E
CZ-2D R/B 4.3 17:02:42 10° ESE 17:05:55 26° ENE 17:09:09 10° N
Unknown 4.2 17:02:53 10° SW 17:06:49 43° SSE 17:10:46 10° E
Cosmos 1777 Rocket 4.3 17:02:41 10° NNW 17:07:46 48° NE 17:12:47 10° SE
Cosmos 2084 4.1 17:03:52 10° SSW 17:08:05 39° SE 17:12:15 10° ENE
COBE Rocket 4.2 17:03:08 10° NNE 17:08:12 50° E 17:13:10 10° S
Okean-O 3.0 17:04:02 10° S 17:08:27 71° WSW 17:12:56 10° NNW
SL-4 R/B 4.3 17:05:37 10° W 17:08:36 20° SW 17:11:24 10° SSE
Unknown 3.9 17:07:08 10° SW 17:11:06 53° SSE 17:14:53 11° E
Cosmos 2227 Rocket 4.4 17:07:54 10° WNW 17:11:37 17° NNW 17:15:22 10° NNE
Cosmos 1821 Rocket 4.0 17:05:30 10° N 17:11:38 88° E 17:17:48 10° S
Cosmos 1605 Rocket 4.3 17:05:51 10° N 17:11:48 44° ENE 17:17:39 10° SE
Unknown 4.1 17:09:25 10° SW 17:13:23 46° SSE 17:17:07 12° E
Gbstr 26 Del rocket 4.1 17:08:36 10° W 17:14:18 74° S 17:21:21 10° ESE
H-2A R/B 3.9 17:10:45 10° S 17:14:33 51° W 17:18:24 10° NNW
Unknown 3.4 17:11:08 10° WSW 17:14:52 78° S 17:18:16 12° E
Unknown 4.1 17:11:06 10° SW 17:15:06 47° SSE 17:18:45 12° E
Unknown 4.1 17:12:44 10° SW 17:16:44 48° SSE 17:20:20 12° E
Cosmos 2082 Rocket 2.8 17:11:46 10° NNW 17:17:08 38° NE 17:22:26 10° ESE
Cosmos 2297 Rocket 4.4 17:13:50 10° WNW 17:17:22 17° NNW 17:20:54 10° NNE
USA 116 4.4 17:15:44 10° NE 17:18:17 22° E 17:20:54 10° SSE
Unknown 4.1 17:14:22 10° SW 17:18:21 49° SSE 17:21:54 13° E
COSMO-SKYMED 1 2.9 17:14:10 10° NNE 17:18:21 44° E 17:22:31 10° S
BREEZE M DEB (TANK) 3.2 17:16:40 10° WSW 17:18:36 27° S 17:21:54 10° SE
Cosmos 1703 3.5 17:15:25 10° N 17:19:16 47° ENE 17:23:05 10° SSE
Unknown 4.0 17:16:01 10° SW 17:20:02 49° SSE 17:23:31 13° E
EO 1 Delta rocket 4.1 17:17:21 10° SE 17:21:46 48° ENE 17:26:37 10° N
COSMOS 2406 3.2 17:15:59 10° NNW 17:21:49 84° ENE 17:27:35 10° SSE
Cosmos 1934 Rocket 4.0 17:16:26 10° N 17:22:46 73° ENE 17:29:08 10° SSE
Unknown 4.0 17:19:21 10° SW 17:23:22 51° SSE 17:26:45 14° E
SJ 16-02 3.3 17:21:35 10° N 17:23:41 13° NE 17:25:24 11° ENE
Meteor 2-10 4.3 17:20:19 10° SSE 17:25:01 40° E 17:29:42 10° NNE
Starlink (trailer) 4.0 17:21:00 10° SW 17:25:02 52° SSE 17:28:20 15° E
Nadezhda 3 Rocket 4.0 17:19:12 10° S 17:25:29 84° E 17:31:54 10° NNE
Unknown 3.9 17:22:38 10° SW 17:26:40 53° SSE 17:29:55 15° E
Cosmos 1825 Rocket 4.4 17:22:26 10° NNW 17:26:43 56° W 17:31:01 10° S
CSL-04 Debris 4.2 17:21:42 10° SSE 17:27:09 74° ENE 17:32:39 10° NNW
Cosmos 1535 Rocket 4.4 17:21:02 10° N 17:27:19 78° ENE 17:33:28 10° SSE
FREGAT/IRIS 4.5 17:27:55 13° NE 17:27:55 13° NE 17:29:07 10° NNE
Unknown 3.4 17:23:54 10° WSW 17:27:43 76° S 17:30:43 16° E
Unknown 3.9 17:24:14 10° SW 17:28:16 53° SSE 17:31:28 16° E
Cosmos 1953 Rocket 3.8 17:24:55 10° NNW 17:29:19 74° W 17:33:39 10° S
H-2A R/B 3.5 17:26:15 13° E 17:29:23 21° NE 17:33:18 10° N
Cosmos 1953 2.5 17:27:11 10° SSW 17:31:16 81° WNW 17:35:22 10° N
Resurs 01 Rocket 3.7 17:31:29 10° NE 17:32:06 10° NE 17:32:47 10° NE
SJ-6B 4.4 17:33:19 15° ENE 17:34:04 16° ENE 17:36:27 10° NNE
Unknown 3.5 17:30:15 10° WSW 17:34:08 75° S 17:36:57 18° E
Unknown 3.8 17:30:39 10° WSW 17:34:43 57° SSE 17:37:40 18° E
Unknown 3.9 17:30:54 10° WSW 17:34:57 57° SSE 17:37:54 18° E
YAOGAN 6 2.6 17:31:35 10° SSE 17:35:15 86° WSW 17:38:55 10° NNW
Unknown 3.8 17:31:34 10° WSW 17:35:38 57° SSE 17:38:33 18° E
Unknown 3.8 17:33:00 10° W 17:35:59 43° SSW 17:38:29 14° SE
Meteor 1-11 4.2 17:33:16 10° N 17:39:02 72° ENE 17:44:49 10° SSE
Unknown 3.8 17:35:28 10° WSW 17:39:32 59° SSE 17:42:18 19° E
Unknown 3.8 17:35:52 10° WSW 17:39:56 59° SSE 17:42:42 20° E
Cosmos 1844 Rocket 2.7 17:35:04 10° SSW 17:40:44 86° ESE 17:46:25 10° NNE
Unknown 3.8 17:37:36 10° WSW 17:41:42 61° SSE 17:44:24 20° E
SKYMED 3 4.5 17:38:03 10° NNE 17:42:26 74° ESE 17:46:46 10° S
Unknown 3.7 17:40:54 10° WSW 17:45:00 62° SSE 17:47:35 22° E
Unknown 3.7 17:41:18 10° WSW 17:45:24 62° SSE 17:47:57 22° E
Cosmos 1606 Rocket 3.9 17:41:32 10° SSW 17:45:53 71° WNW 17:50:16 10° N
Unknown 3.7 17:42:28 10° WSW 17:46:35 62° SSE 17:49:06 22° E
ADEOS Rocket 4.5 17:41:18 10° NNE 17:47:10 23° E 17:52:47 10° SE
Envisat 3.9 17:44:46 10° S 17:49:43 52° W 17:54:43 10° NNW
Unknown 3.7 17:45:38 10° WSW 17:49:44 63° SSE 17:52:07 24° E
Cosmos 1898 Rocket 4.5 17:45:11 10° NNW 17:49:47 29° NE 17:52:15 21° E
BREEZE-M DEB (TANK) 4.5 17:49:02 10° S 17:50:40 12° SSE 17:51:13 12° SSE
Meteor 1-16 Rocket 4.1 17:45:32 10° S 17:51:04 80° E 17:56:29 10° NNE
Cosmos 2100 Rocket 4.4 17:47:16 10° N 17:53:06 39° ENE 17:58:31 11° SE
Unknown 3.7 17:49:05 10° WSW 17:53:11 65° SSE 17:55:28 25° E
IRS-1A Rocket 4.3 17:48:17 10° SE 17:53:40 59° ENE 17:59:07 10° NNW
Unknown 3.7 17:50:44 10° WSW 17:54:50 66° SSE 17:57:03 26° E
Cosmos 1461 2.7 17:51:10 10° NW 17:55:13 79° NE 17:58:03 20° SE
Cosmos 1908 3.3 17:52:03 10° S 17:55:51 54° E 17:59:40 10° NNE
Unknown 3.7 17:52:23 10° WSW 17:56:31 67° SSE 17:58:39 27° E
ASTEX 1 3.6 17:51:46 10° N 17:56:44 78° W 18:01:42 10° SSW
Lacrosse 5 rocket 4.0 17:55:33 10° W 17:57:30 14° SW 17:59:29 10° SSW
CZ-2C R/B 4.5 17:55:57 20° E 17:57:56 24° NE 18:02:28 10° N
Unknown 3.7 17:54:03 10° WSW 17:58:10 68° SSE 18:00:15 28° E
FALCON 9 DEB 3.3 17:55:08 10° W 17:58:36 68° SSW 18:00:09 30° ESE
Cosmos 2084 Rocket 3.7 17:56:22 10° NW 18:00:46 56° NNE 18:02:54 28° E
Cosmos 1356 3.3 17:57:44 10° S 18:01:10 81° ESE 18:04:38 10° NNE
Unknown 3.6 17:57:22 10° WSW 18:01:30 69° SSE 18:03:27 30° E
Cosmos 1939 Rocket 2.7 17:58:01 10° SSE 18:02:00 78° ENE 18:06:05 10° NNW
Cosmos 2278 Rocket 2.6 17:56:58 10° S 18:02:11 39° ESE 18:07:25 10° NE
Unknown 3.6 17:59:05 10° WSW 18:03:12 70° SSE 18:05:06 31° E
Unknown 3.3 18:00:24 10° W 18:03:46 61° SSW 18:05:05 33° SE
Unknown 3.6 18:00:42 10° WSW 18:04:50 70° SSE 18:06:39 32° E
Cosmos 1812 Rocket 4.1 18:00:52 10° SSE 18:04:54 35° E 18:08:59 10° NNE
Unknown 3.3 18:01:57 10° W 18:05:28 69° SSW 18:06:45 36° ESE
Unknown 3.6 18:02:19 10° WSW 18:06:26 70° SSE 18:08:12 33° E
Cosmos 1153 Rocket 4.4 18:00:19 10° N 18:06:29 68° ENE 18:12:35 10° SSE
SKYMED 2 3.9 18:02:09 10° N 18:06:30 69° WNW 18:10:48 10° SSW
Cosmos 1844 3.8 18:01:05 10° SW 18:06:49 81° WNW 18:12:41 10° NNE
Unknown 3.6 18:02:43 10° WSW 18:06:52 71° SSE 18:08:36 33° E
ATLAS 5 CENTAUR R/B 2.1 18:02:55 10° WSW 18:07:20 62° NW 18:11:47 13° NE
Unknown 3.6 18:05:29 10° WSW 18:09:36 71° SSE 18:11:14 35° E
Cosmos 489 Rocket 4.4 18:05:09 10° SSW 18:11:18 71° ESE 18:17:30 10° NNE
Cosmos 1076 Rocket 3.6 18:07:37 10° N 18:11:57 54° ENE 18:14:33 22° SE
Unknown 3.6 18:08:51 10° WSW 18:12:58 72° SSE 18:14:29 38° E
YAOGAN 1 3.7 18:10:09 10° S 18:14:19 46° W 18:18:31 10° NNW
Unknown 3.6 18:10:29 10° WSW 18:14:37 73° SSE 18:16:03 39° E
Cosmos 2016 Rocket 4.5 18:10:11 10° N 18:16:00 39° ENE 18:18:38 27° ESE
Unknown 3.6 18:12:21 10° WSW 18:16:30 75° SSE 18:17:53 40° E
ATLAS CENTAUR R/B 3.4 18:13:11 10° NW 18:16:52 22° N 18:18:49 17° NE
Unknown 3.6 18:13:45 10° WSW 18:17:54 74° SSE 18:19:12 42° E
Falcon 9 debris 3.5 18:14:46 10° W 18:18:10 56° SSW 18:18:58 43° SSE
Unknown 3.6 18:15:26 10° WSW 18:19:34 75° SSE 18:20:49 43° E
Cosmos 292 Rocket 3.6 18:17:04 10° SSW 18:21:50 87° ESE 18:26:38 10° NNE
Unknown 3.5 18:18:47 10° WSW 18:22:55 76° S 18:24:02 47° E
Unknown 3.5 18:20:27 10° WSW 18:24:36 76° S 18:25:39 48° E
CZ-4 R/B 3.6 18:21:34 10° SSW 18:25:13 29° W 18:28:57 10° NNW
Unknown 3.5 18:22:07 10° WSW 18:26:16 77° S 18:27:15 50° E
USA 238 DEB 4.1 18:20:53 10° S 18:26:53 36° ESE 18:28:52 30° E
USA 238 4.1 18:21:00 10° S 18:27:00 36° ESE 18:28:55 30° E
Unknown 3.5 18:23:47 10° WSW 18:27:56 77° S 18:28:51 52° E
Cosmos 2263 Rocket 4.3 18:23:43 10° W 18:28:08 23° NNW 18:32:32 10° NNE
Unknown 3.4 18:24:54 10° W 18:28:21 56° SSW 18:28:48 51° SSE
Lacrosse 5 2.0 18:25:40 10° WNW 18:30:42 68° SSW 18:32:48 34° SE
Unknown 3.5 18:27:05 10° WSW 18:31:14 78° S 18:32:02 56° E
Cosmos 2061 Rocket 4.2 18:25:39 10° N 18:31:46 50° ENE 18:34:20 32° SE
Ariane Rocket 3.3 18:27:08 10° S 18:32:13 68° WSW 18:37:20 10° NNW
Cosmos 1726 3.4 18:29:14 10° SW 18:32:43 42° WNW 18:36:14 10° N
Unknown 3.5 18:28:34 10° WSW 18:32:43 79° S 18:33:27 58° E
Cosmos 1892 4.2 18:29:16 10° N 18:31:17 24° NNE 18:31:17 24° NNE
Unknown 3.5 18:29:01 10° W 18:33:11 81° S 18:33:54 59° E
Unknown 3.5 18:30:39 10° W 18:34:48 81° S 18:35:28 61° E
Unknown 3.5 18:33:43 10° WSW 18:37:53 80° S 18:38:25 65° ESE
Cosmos 1833 Rocket 3.2 18:33:52 10° NW 18:39:23 58° WSW 18:44:18 13° S
ARGOS 3.3 18:38:25 41° ESE 18:39:57 54° ENE 18:45:15 10° N
Unknown 3.4 18:37:02 10° W 18:41:12 81° S 18:41:36 70° ESE
Unknown 3.4 18:38:45 10° W 18:42:54 81° S 18:43:15 73° ESE
Cosmos 921 Rocket 4.4 18:39:17 10° SW 18:43:33 41° WNW 18:47:47 10° NNE
Unknown 3.4 18:40:22 10° W 18:44:31 82° S 18:44:48 75° ESE
Unknown 3.4 18:40:40 10° W 18:44:46 83° S 18:45:00 77° ESE
Cosmos 2151 3.7 18:41:43 10° N 18:44:58 39° NE 18:44:58 39° NE
Unknown 3.4 18:42:04 10° W 18:46:13 82° S 18:46:26 78° SE
Cosmos 2084 4.2 18:43:09 10° WSW 18:47:34 52° NNW 18:49:25 31° NNE
Cosmos 1937 Rocket 3.6 18:43:13 10° NNW 18:48:16 51° ENE 18:48:39 50° ENE
Unknown 3.4 18:46:07 10° W 18:50:10 84° S 18:50:10 84° S
SPOT 3 Rocket 3.4 18:48:34 41° SSE 18:50:24 77° ENE 18:55:38 10° NNW
NOSS 3-2 (A) 4.0 18:47:06 10° S 18:51:20 36° SSE 18:51:20 36° SSE
Unknown 3.5 18:48:39 10° W 18:52:45 83° SSW 18:52:45 83° SSW
Meteor 2-1 Rocket 4.2 18:52:17 52° ESE 18:52:49 54° E 18:58:15 10° NNE
Unknown 3.6 18:49:09 10° W 18:52:29 64° WSW 18:52:29 64° WSW
Unknown 3.5 18:50:22 10° W 18:54:24 81° SW 18:54:24 81° SW
Cosmos 1459 Rocket 3.9 18:48:26 10° N 18:54:39 87° ENE 18:58:58 22° S
Cosmos 990 Rocket 3.9 18:50:21 10° NNW 18:55:34 69° ENE 18:56:14 62° ESE
Unknown 3.6 18:52:00 10° W 18:55:59 80° SW 18:55:59 80° SW
Cosmos 2058 3.0 18:53:19 10° NNW 18:57:33 77° W 18:58:10 62° SSW
Unknown 3.6 18:53:38 10° W 18:57:33 77° WSW 18:57:33 77° WSW
Cosmos 2227 Rocket 4.4 18:55:18 10° NNW 18:58:09 14° N 19:00:43 11° NE
Unknown 3.7 18:55:19 10° W 18:59:10 75° WSW 18:59:10 75° WSW
Cosmos 2082 Rocket 2.7 18:55:53 10° NW 19:01:30 57° WSW 19:04:38 26° S
Unknown 3.8 18:58:41 10° W 19:02:24 70° WSW 19:02:24 70° WSW
SJ 16-02 1.9 18:58:55 10° NNW 19:02:24 47° NNE 19:02:24 47° NNE
Cosmos 2297 Rocket 4.4 19:00:59 10° NNW 19:03:54 14° N 19:06:05 12° NNE
Starlink (trailer) 3.8 19:00:20 10° W 19:03:59 67° WSW 19:03:59 67° WSW
Unknown 4.1 19:02:15 10° W 19:05:15 52° W 19:05:15 52° W
Unknown 3.9 19:01:59 10° W 19:05:34 65° WSW 19:05:34 65° WSW
Resurs 01 Rocket 2.6 19:09:04 36° NNE 19:09:04 36° NNE 19:11:58 10° N
Unknown 3.9 19:03:35 10° W 19:07:07 63° WSW 19:07:07 63° WSW
H-2A R/B 2.0 19:06:52 55° SSE 19:08:07 89° ENE 19:13:35 10° NNW
SJ-6B 3.3 19:08:58 55° NW 19:08:58 55° NW 19:12:06 10° NNW
Cosmos 1727 Rocket 4.2 19:04:05 10° SSW 19:10:14 67° WNW 19:16:25 10° N
Unknown 4.4 19:08:51 10° W 19:11:44 47° W 19:11:44 47° W
Okean 3 Rocket 3.7 19:08:50 10° NNW 19:13:08 77° NW 19:13:08 77° NW
Unknown 4.2 19:10:03 10° W 19:13:18 54° W 19:13:18 54° W
Unknown 4.2 19:10:17 10° W 19:13:33 54° W 19:13:33 54° W
Cosmos 1802 Rocket 4.0 19:08:10 10° NNW 19:14:40 83° W 19:17:48 33° S
Unknown 4.3 19:10:58 10° W 19:14:11 53° W 19:14:11 53° W
Cosmos 1766 Rocket 4.2 19:12:20 10° N 19:15:27 46° N 19:15:27 46° N
Cosmos 2173 Rocket 4.2 19:11:40 10° NNW 19:17:55 68° W 19:22:02 22° S
Unknown 4.4 19:14:53 10° W 19:17:57 48° W 19:17:57 48° W
Unknown 4.5 19:15:18 10° W 19:18:21 48° W 19:18:21 48° W
Cosmos 1864 Rocket 4.3 19:15:25 10° N 19:21:35 80° ENE 19:22:21 69° SE
Resurs 1-3 4.5 19:28:03 45° NNW 19:28:03 45° NNW 19:31:07 10° NNW
Cosmos 2123 Rocket 4.2 19:31:06 54° NE 19:31:06 54° NE 19:36:06 10° NNE
Cosmos 1898 Rocket 3.7 19:27:04 10° NNW 19:32:18 64° WSW 19:32:33 63° SW
ADEOS Rocket 3.4 19:25:57 10° NNE 19:33:49 82° ESE 19:41:12 10° SSW
Terra 4.2 19:38:59 13° NNE 19:38:59 13° NNE 19:39:43 10° N
Cosmos 1725 Rocket 3.9 19:30:10 10° NNW 19:36:28 85° W 19:37:15 70° S
CZ-2C R/B 3.2 19:37:01 82° SW 19:37:12 84° WSW 19:43:02 10° NNW
Cosmos 2233 Rocket 4.0 19:34:16 10° N 19:39:59 68° NE 19:39:59 68° NE
MetOp-A 4.3 19:41:48 71° NW 19:41:48 71° NW 19:46:39 10° NNW
Cosmos 2278 Rocket 3.0 19:40:40 10° SW 19:46:11 50° NW 19:51:12 13° NNE
ATLAS 5 CENTAUR R/B 3.4 19:48:41 10° WNW 19:52:53 30° N 19:53:19 29° N
Meteor 2-3 Rocket 4.4 19:51:00 10° N 19:55:03 46° N 19:55:03 46° N
ATLAS CENTAUR R/B 3.4 19:52:35 10° NW 19:55:01 26° NNW 19:55:01 26° NNW
Lacrosse 5 4.0 20:09:20 10° W 20:12:00 19° WSW 20:12:00 19° WSW
USA 238 DEB 3.9 20:10:38 10° SW 20:16:23 64° W 20:16:23 64° W
USA 238 3.9 20:10:44 10° SW 20:16:26 63° W 20:16:26 63° W
SJ 16-02 4.1 20:38:10 10° NW 20:39:24 16° WNW 20:39:24 16° WNW
Resurs 01 Rocket 4.3 20:46:39 17° NW 20:46:39 17° NW 20:48:03 10° NW
Cosmos 2227 Rocket 4.2 20:39:48 10° NNW 20:42:32 21° N 20:42:32 21° N
H-2A R/B 4.4 20:47:31 18° W 20:48:19 18° W 20:51:58 10° NW
Cosmos 2297 Rocket 4.2 20:45:19 10° NNW 20:47:52 21° N 20:47:52 21° N
CENTAUR R/B 4.4 23:50:53 31° NE 23:50:53 31° NE 23:55:36 10° ENE
